Tracking 19562 objects as of 25-Mar-2019
HD Live streaming from Space Station
objects crossing your sky now

ASTRA 2C

Track ASTRA 2C now!
ASTRA 2C is classified as:


NORAD ID: 26853
Int'l Code: 2001-025A
Perigee: 35,781.0 km
Apogee: 35,805.9 km
Inclination: 1.8 °
Period: 1,436.1 minutes
Semi major axis: 42164 km
RCS: 15.8865 m2 (large)
Launch date: June 16, 2001
Source: SOCIETE EUROPEENNE DES SATELLITES (SES)
Launch site: TYURATAM MISSILE AND SPACE COMPLEX (TTMTR)

Direct-to-home; broadcasting, multimedia; 32 transponders for first five years; 28 after, continental Europe
aabbcc
Your satellite tracking list
Your tracking list is empty




NASA's NSSDC Master Catalog

Two Line Element Set (TLE):
1 26853U 01025A   19084.18035681  .00000116  00000-0  00000+0 0  9993
2 26853   1.8028  88.6498 0002961 276.8529 265.4324  1.00272853 65099
Source of the keplerian elements: AFSPC